#timestamp,LO_Frequency,Hit,StdDev 
1662631215.7,286046992.0,N
1662631235.5,286046986.5,N
1662631255.4,286046985.6,N
1662631275.2,286046991.3,N
1662631295.0,286046996.2,N
1662631295.9,286046996.2,N
1662631315.8,286046992.7,N
1662631335.6,286046993.4,N
1662631355.5,286046999.8,N
1662631375.3,286047003.9,N
1662631395.1,286046997.0,N
1662631415.9,286046995.5,N
1662631435.7,286046996.5,N
1662631455.5,286047000.8,N
1662631475.4,286046999.0,N
1662631495.2,286046994.6,N
1662631515.1,286046995.9,N
1662631516.0,286046995.9,N
1662631535.8,286046996.0,N
1662631555.6,286046997.8,N
1662631575.5,286047000.8,N
1662631595.3,286047000.4,N
1662631615.1,286047004.0,N
1662631635.9,286047003.2,N
1662631655.7,286047005.6,N
1662631675.6,286047009.5,N
1662631695.4,286047007.9,N
1662631715.2,286047008.5,N
1662631735.1,286047011.1,N
1662631736.0,286047011.1,N
1662631755.8,286047009.0,N
1662631775.6,286047001.6,N
1662631795.5,286047005.8,N
1662631815.3,286047003.9,N
1662631835.2,286046996.1,N
1662631855.9,286046992.4,N
1662631875.8,286046999.2,N
1662631895.6,286047002.7,N
1662631915.4,286047004.5,N
1662631935.3,286046999.4,N
1662631955.1,286046994.6,N
1662631975.8,286046996.5,N
1662631995.7,286046999.2,N
1662632015.5,286047000.7,N
1662632035.4,286046998.9,N
1662632055.2,286047000.7,N
1662632075.0,286046999.2,N
1662632075.9,286046999.2,N
1662632095.8,286046998.9,N
1662632115.6,286046997.1,N
1662632135.5,286046999.2,N
1662632155.3,286047004.8,N
1662632175.1,286047001.6,N
1662632195.9,286046997.2,N
1662632215.7,286046993.4,N
1662632235.5,286046998.2,N
1662632255.4,286046999.8,N
1662632275.2,286046997.8,N
1662632295.1,286046996.6,N
1662632296.0,286046996.6,N
1662632315.8,286047000.2,N
1662632335.6,286047001.7,N
1662632355.5,286047004.8,N
1662632375.3,286047010.2,Y
1662632395.2,286047010.0,P
1662632415.9,286047009.5,N
1662632435.7,286047001.5,N
1662632455.6,286046991.7,N
1662632475.4,286046986.4,N
1662632495.2,286046985.1,N
1662632515.1,286046986.1,N
1662632516.0,286046986.1,N
1662632535.8,286046985.0,N
1662632555.7,286046993.0,N
1662632575.5,286046996.0,N
1662632595.3,286047002.7,N
1662632615.2,286046999.7,N
1662632635.0,286047001.4,N
1662632635.9,286047001.4,N
1662632655.7,286046999.3,N
1662632675.6,286046996.8,N
1662632695.4,286046989.1,N
1662632715.3,286046981.3,N
1662632735.1,286046983.9,N
1662632755.8,286046986.4,N
1662632775.7,286046987.6,N
1662632795.5,286046988.2,N
1662632815.3,286046993.2,N
1662632835.2,286046997.5,N
1662632855.0,286046992.7,N
1662632855.9,286046992.7,N
1662632875.8,286046999.1,N
1662632895.6,286047003.8,N
1662632915.4,286047007.7,N
1662632935.3,286047007.6,N
1662632955.1,286047006.3,N
1662632975.8,286047005.5,N
1662632995.7,286047007.3,N
1662633015.5,286047010.4,N
1662633035.4,286047009.2,N
1662633055.2,286047010.2,N
1662633075.0,286047012.8,N
1662633075.9,286047012.8,N
1662633095.8,286047010.6,N
1662633115.6,286047013.0,N
1662633135.5,286047017.9,N
1662633155.3,286047019.6,N
1662633175.1,286047017.8,N
1662633195.9,286047019.3,N
1662633215.7,286047012.1,N
1662633235.5,286047006.9,N
1662633255.4,286047009.3,N
1662633275.2,286047011.4,N
1662633295.1,286047008.5,N
1662633296.0,286047008.5,N
1662633315.8,286047007.6,N
1662633335.6,286047011.8,N
1662633355.5,286047013.0,N
1662633375.3,286047016.6,N
1662633395.1,286047015.6,N
1662633415.9,286047011.0,N
1662633435.7,286047006.9,N
1662633455.6,286047008.6,N
1662633475.4,286047007.1,N
1662633495.2,286047000.1,N
1662633515.1,286047003.5,N
1662633516.0,286047003.5,N
1662633535.8,286047012.4,N
1662633555.7,286047011.7,N
1662633575.5,286047010.4,N
1662633595.3,286047002.7,N
1662633615.2,286047004.0,N
1662633635.0,286047002.5,N
1662633635.9,286047002.5,N
1662633655.8,286046999.6,N
1662633675.6,286046996.5,N
1662633695.4,286047004.9,N
1662633715.3,286047007.3,N
1662633735.1,286047005.5,N
1662633755.9,286047010.6,N
1662633775.7,286047017.7,Y
1662633795.5,286047017.0,P
1662633815.4,286047012.9,N
1662633835.2,286047009.1,N
1662633855.1,286047005.7,N
1662633856.0,286047005.7,N
1662633875.8,286047009.0,N
1662633895.7,286047007.5,N
1662633915.5,286047005.3,N
1662633935.3,286047005.8,N
1662633955.2,286047007.7,N
1662633975.0,286047011.6,Y
1662633975.9,286047011.6,P
1662633995.8,286047002.2,N
1662634015.6,286047003.9,N
1662634035.4,286046999.7,N
1662634055.3,286046993.3,N
1662634075.1,286046989.0,N
1662634095.8,286046991.0,N
1662634115.7,286046996.1,N
1662634135.5,286046998.4,N
1662634155.3,286046995.6,N
1662634175.2,286046991.8,N
1662634195.0,286046991.1,N
1662634195.9,286046991.1,N
1662634215.8,286046992.6,N
1662634235.6,286046993.3,N
1662634255.4,286046995.6,N
1662634275.3,286046998.9,N
1662634295.1,286046999.6,N
1662634315.8,286047002.1,N
1662634335.7,286047004.1,N
1662634355.5,286046998.6,N
1662634375.4,286046996.5,N
1662634395.2,286046994.4,N
1662634415.0,286046994.6,N
1662634415.9,286046994.6,N
1662634435.8,286046997.5,N
1662634455.6,286046998.4,N
1662634475.4,286046993.5,N
1662634495.3,286046991.7,N
1662634515.1,286046987.4,N
1662634535.9,286046986.5,N
1662634555.7,286046988.4,N
1662634575.5,286046980.8,Y
1662634595.4,286046982.9,P
1662634615.2,286046986.4,N
1662634635.0,286046983.8,P
1662634635.9,286046983.8,Y
1662634655.8,286046999.2,P
1662634675.6,286046998.4,N
1662634695.5,286046998.1,N
1662634715.3,286046999.2,N
1662634735.1,286046994.6,N
1662634755.9,286046989.4,N
1662634775.7,286046993.2,N
1662634795.5,286046991.7,N
